World > North America > United States > Texas

Lanely, Texas Regional Weather

Lat: 31.46N, Lon: 96.07W
Wx Zone: TXZ162Web Search
Lanely Weather Warning NWS WEATHER ALERT FOR THE LANELY, TX AREA - Issued: 806 PM CDT Wed Apr 14 2021 Lanely Weather Warning  

Pass this page to a friend. Tell them to point their camera at the QR Code near the bottom of this page.

Feedback


°F Click to change Lanely hourly weather to Imperial units.Click to change Lanely hourly weather to Metric units. °C
Lanely Weather Map
UTC Time: 4/15/2021, 04:49
Your Time:

Lanely, TX Regional Weather

Expires:202104150500;;572022
ASUS44 KFWD 150415
RWRTX 
NORTH TEXAS HOURLY WEATHER ROUNDUP
NATIONAL WEATHER SERVICE FORT WORTH TX
1100 PM CDT WED APR 14 2021

NOTE: "FAIR" INDICATES FEW OR NO CLOUDS BELOW 12,000 FEET WITH NO
SIGNIFICANT WEATHER AND/OR OBSTRUCTIONS TO VISIBILITY.


TXZ143>147-156>162-174-175-150500-
CENTRAL TEXAS
  
CITY           SKY/WX    TMP DP  RH WIND       PRES   REMARKS
WACO           CLOUDY    64  60  87 NE8       30.00R                  
WACO-TSTC      CLOUDY    64  59  82 NE9       30.00S                  
WACO-MCGREGOR  CLOUDY    63  62  97 NE9       30.01R FOG              
HILLSBORO      CLOUDY    64  62  93 NE8       30.01R                  
CORSICANA      CLOUDY    63  58  83 E10       30.02S                  
MEXIA          CLOUDY    64  62  94 NE5       30.00S                  
HEARNE         CLOUDY    70  64  82 CALM      29.99R                  
CAMERON        CLOUDY    69  64  85 NE7       29.99R                  
TEMPLE         CLOUDY    64  64 100 NE8       30.00S FOG              
KILLEEN        CLOUDY    69  61  76 N12       29.97S                  
KILLEEN-SKYLRK CLOUDY   N/A N/A N/A NE13      29.99R                  
FORT HOOD      CLOUDY    66  61  82 NE12      29.99S                  
GATESVILLE     CLOUDY    64  59  82 NE10      30.02S                  
HAMILTON       MOCLDY    65  58  78 NE10      30.03R                  
LAMPASAS       MOCLDY    68  61  77 NE8       29.98R                  
$$


SKY/WX - Weather  TMP - Temperature  DP - Dew Point  RH - Relative Humidity
WIND - Wind Direction/Speed PRES - Barometric Pressure VSB - Visibility
WCI - Wind Chill Index E13G22 Wind - East Wind 13 mph/Gusts of 22 mph